Regional Weather Roundup
Issued by NWS

Home | Current Version | Previous Version | Text Only | Print | Product List | Glossary Off
Versions: 1 2 3 4 5 6 7 8 9 10 11 12 13 14 15 16 17 18 19 20 21 22 23 24 25 26 27 28 29 30 31 32 33 34 35 36 37 38 39 40 41 42 43 44 45 46 47 48 49 50

000
ASUS45 KTFX 272304
RWRMT
MONTANA HOURLY WEATHER ROUNDUP
NATIONAL WEATHER SERVICE GREAT FALLS MT
404 PM MST SAT DEC 27 2014

NOTE: "FAIR" INDICATES FEW OR NO CLOUDS BELOW 12000 FEET WITH NO
SIGNIFICANT WEATHER AND/OR OBSTRUCTIONS TO VISIBILITY.

* THESE STATIONS ARE NOT UNDER NWS QUALITY CONTROL. THEY DO NOT
   REPORT WEATHER SUCH AS PRECIPITATION OR FOG.

MTZ001>007-043-280000-
WEST OF THE DIVIDE
CITY           SKY/WX    TMP DP  RH WIND       PRES   REMARKS
KALISPELL      LGT SNOW  28  27  96 S14       29.98F VSB 3/4  WCI  17
MISSOULA       CLOUDY    28  23  81 CALM      30.04F
BUTTE          CLOUDY    25  10  53 SW6       29.98S WCI  18
MULLAN PASS    SNOW      21  18  88 VRB7      29.85F VSB M1/4 WCI  12
* ESSEX        N/A       26  23  88 N/A        N/A
* LINCOLN      N/A       25  21  85 W5G12      N/A   WCI  19
* LOOKOUT PASS N/A       25  23  92 SE3        N/A
* POLSON       N/A       28  26  92 S1         N/A
* RONAN APT    CLOUDY    30  27  89 N/A        N/A
* SEELEY LAKE  N/A       28  23  81 N/A        N/A
* THOMP F APT  CLOUDY    12   6  77 SE3G8      N/A
* YAAK HILL    N/A       31  27  85 N/A        N/A
$$

MTZ008-052>055-280000-
SOUTHWEST MONTANA
CITY           SKY/WX    TMP DP  RH WIND       PRES   REMARKS
BOZEMAN        CLOUDY    19  14  81 E3        30.03F
DILLON         PTSUNNY   21  10  62 S13       30.03F WCI   8
* W YELLOWSTON PTCLDY    13   7  77 SW5G11     N/A   WCI   5
* THREE FORKS  PTCLDY    27  19  72 S22G28     N/A   WCI  13
* BOULDER HILL N/A       23   8  52 SW21       N/A   WCI   8
* MONIDA PASS  N/A        9   7  91 SE20       N/A   WCI -10
* RAYNOLDS PAS N/A       11  -4  50 S19        N/A   WCI  -7
* WHITEHALL    N/A       27  11  51 SW17G30    N/A   WCI  14
* WISE RIVER   N/A       26  11  53 NW9G15     N/A   WCI  17
$$

MTZ009>010-012-014-046-048-049-054-280000-
EAST SLOPES AND CENTRAL MONTANA
CITY           SKY/WX    TMP DP  RH WIND       PRES   REMARKS
CUT BANK       PTSUNNY   25  16  69 W12       29.85F WCI  14
GREAT FALLS    PTCLDY    27  18  69 SW18      29.90F WCI  14
HELENA         CLOUDY    27  19  72 CALM      29.99S
* DEARBORN     N/A       31  17  56 NE4G10     N/A
* EAST GLACIER N/A       25  16  69 W22G29     N/A   WCI  10
* MONARCH      N/A       23  10  57 SW13G20    N/A   WCI  11
* PENDROY      N/A       28  16  61 W9         N/A   WCI  19
* SWEET GRASS  N/A       27  16  63 SW8        N/A   WCI  19
$$

MTZ011-013-016-021-035-040-045-047-050-051-280000-
NORTH CENTRAL MONTANA
CITY           SKY/WX    TMP DP  RH WIND       PRES   REMARKS
HAVRE          PTSUNNY   28  21  75 SW14      29.91F WCI  17
LEWISTOWN      CLOUDY    28  19  69 W12       29.92S WCI  18
* N BAR RANCH  CLOUDY    28  14  56 W8G15     29.92S WCI  20
* CHESTER      N/A       28  19  69 S2         N/A
* DENTON       N/A       29  18  63 W9         N/A   WCI  21
* JUDITH GAP   N/A       25  14  63 SW26G31    N/A   WCI   9
* LOMA         N/A       32  22  67 SW8        N/A   WCI  25
$$

MTZ017>020-022>027-061-062-280000-
NORTHEAST MONTANA
CITY           SKY/WX    TMP DP  RH WIND       PRES   REMARKS
GLASGOW        CLOUDY    28  18  66 SW3       29.95S
GLENDIVE       CLOUDY    30  18  61 SW8       29.99S WCI  22
JORDAN         PTCLDY    28  21  75 SW7       29.96S WCI  21
SIDNEY         PTSUNNY   28  18  66 S7        30.01R WCI  21
WOLF POINT     CLOUDY    28  19  69 CALM      29.98S
* BEAVER HILL  N/A       24  17  75 S8         N/A   WCI  15
* CIRCLE       N/A       30  20  66 SW6G12     N/A   WCI  24
* LINDSAY DVD  N/A       27  17  66 SW9        N/A   WCI  18
* NAVAJO       N/A       22  19  88 N5         N/A   WCI  15
* SACO         N/A       31  19  61 SW5        N/A   WCI  26
$$

MTZ028>042-056>058-280000-
SOUTHCENTRAL AND SOUTHEAST MONTANA
CITY           SKY/WX    TMP DP  RH WIND       PRES   REMARKS
BAKER          PTSUNNY   23  16  74 W8        30.00R WCI  14
BILLINGS       PTSUNNY   25  14  63 SW18      29.99S WCI  11
LIVINGSTON     PTSUNNY   27   9  46 SW22G40   29.95F WCI  13
MILES CITY     PTCLDY    23  18  81 W7        30.01R WCI  15
* LAUREL APT   PTCLDY    25  12  58 S13        N/A   WCI  13
* ROUNDUP APT  PTCLDY    28  16  61 W13G21     N/A   WCI  17
* ALZADA       N/A       25  16  69 SW4        N/A
* HYSHAM       N/A       26  13  58 W6G12      N/A   WCI  19
* REED POINT   N/A       31  14  49 W12        N/A   WCI  22
* ROSCOE HILL  N/A       28   0  30 SW5G12     N/A   WCI  22
$$

REGIONAL REPORTS...DAKOTAS
CITY           SKY/WX    TMP DP  RH WIND       PRES   REMARKS
WILLISTON      CLOUDY    25  16  69 N5        29.99R WCI  19
DICKINSON      PTCLDY    21  12  68 W9        29.96R WCI  11
BEACH          CLOUDY    25  18  75 W12       29.99R WCI  14
CROSBY         CLOUDY    16  14  92 NW8       30.01R WCI   5
WATFORD CITY   SUNNY     23  16  74 SW8       29.97R WCI  14
BISMARCK       PTCLDY    27  18  69 W12       30.00R WCI  16
GRAND FORKS    CLOUDY    19  16  88 CALM      30.02S
FARGO          CLOUDY    25  18  75 W8        30.03S WCI  16
BUFFALO SD     PTCLDY    28  16  61 W15       29.94R WCI  16
RAPID CITY     PTSUNNY   19  12  74 CALM      30.02S
$$

REGIONAL REPORTS...WYOMING/IDAHO/WASHINGTON
CITY           SKY/WX    TMP DP  RH WIND       PRES   REMARKS
GILLETTE       CLOUDY    23  10  57 SW9       30.01R WCI  13
SHERIDAN       CLOUDY    21  10  62 S6        30.00F WCI  13
CODY           SUNNY     23  12  63 NW10      29.98S WCI  13
YELLOWSTONE LA PTCLDY    10   3  73 VRB7      30.04S WCI  -1
SALMON         CLOUDY    23   9  55 CALM      30.16S
MULLAN PASS    SNOW      21  18  88 VRB7      29.85S VSB M1/4 WCI  12
SAND POINT     SNOW      32  32 100 CALM      29.97F VSB 1/2
SPOKANE        LGT SNOW  34  32  92 S18G28    29.92F VSB 1    WCI  23
$$

REGIONAL REPORTS...ALBERTA
CITY           SKY/WX    TMP DP  RH WIND       PRES   REMARKS
EDMONTON       FOG       19  16  88 N6        29.92R VSB 2 1/2 WCI  11

$$



USA.gov is the U.S. government's official web portal to all federal, state and local government web resources and services.